Location: ????
(55.2778°N, 39.2433°E)
Time: 01:50:12
(UTC+00:00)

Cosmos 44 Rocket - Pass Details

Date: 14 April 2024
Orbit: 641 x 743 km, 65.1° (Epoch: 18 May)

Event Time Altitude Azimuth Distance (km) Brightness Sun altitude
Exits shadow 00:10:13 28° 216° (SW) 1,374 4.2 -16.5°
Maximum altitude 00:13:00 79° 134° (SE) 760 3.4 -16.2°
Drops below altitude 10° 00:18:09 10° 48° (NE) 2,245 7.3 -15.7°
Sets 00:20:31 0° 47° (NE) 3,159 8.6 -15.4°
